This is the latest recevied weather packets stored in our database for station/object KF6TYS-13. If no packets are shown the sender has not sent any weather packets the latest 10 day(s).
| Time | Temp. | Humidity | Pressure | Rain* | Wind** | Luminosity | Snow |
|---|---|---|---|---|---|---|---|
| 1777683635 | 57.22° C | 74% | 1010.7 hPa | 0 mm | - | - | - |
| 1777681833 | 57.78° C | 71% | 1011 hPa | 0 mm | - | - | - |
| 1777680032 | 57.78° C | 67% | 1011 hPa | 0 mm | - | - | - |
| 1777678232 | 56.67° C | 64% | 1011 hPa | 0 mm | - | - | - |
| 1777676431 | 56.67° C | 69% | 1011.2 hPa | 0 mm | - | - | - |
| 1777674632 | 57.22° C | 72% | 1011.7 hPa | 0 mm | - | - | - |
| 1777672829 | 57.22° C | 71% | 1012.1 hPa | 0 mm | - | - | - |
| 1777671028 | 57.22° C | 72% | 1012.3 hPa | 0 mm | - | - | - |
| 1777669227 | 57.22° C | 71% | 1012.6 hPa | 0 mm | - | - | - |
| 1777667426 | 57.22° C | 72% | 1012.7 hPa | 0 mm | - | - | - |
| 1777665625 | 57.22° C | 73% | 1013 hPa | 0 mm | - | - | - |
| 1777663824 | 57.22° C | 74% | 1013.2 hPa | 0 mm | - | - | - |
| 1777662024 | 56.67° C | 75% | 1013.6 hPa | 0 mm | - | - | - |
| 1777660223 | 56.67° C | 83% | 1013.9 hPa | 0 mm | - | - | - |
| 1777658422 | 55.56° C | 92% | 1014.1 hPa | 0 mm | - | - | - |
| 1777656621 | 55.56° C | 100% | 1014.3 hPa | 0 mm | - | - | - |
| 1777654821 | 55° C | 100% | 1014.6 hPa | 0 mm | - | - | - |
| 1777653019 | 54.44° C | 100% | 1014.6 hPa | 0 mm | - | - | - |
| 1777651218 | 54.44° C | 100% | 1014.7 hPa | 0 mm | - | - | - |
| 1777649417 | 54.44° C | 100% | 1014.4 hPa | 0 mm | - | - | - |
| 1777647617 | 54.44° C | 100% | 1014.2 hPa | 0 mm | - | - | - |
| 1777645816 | 54.44° C | 100% | 1014 hPa | 0 mm | - | - | - |
| 1777644014 | 53.33° C | 100% | 1013.7 hPa | 0 mm | - | - | - |
| 1777642214 | 53.33° C | 100% | 1013.3 hPa | 0 mm | - | - | - |
| 1777640413 | 53.33° C | 100% | 1013 hPa | 0 mm | - | - | - |
* Rain latest hour (hover to see other rain measurements)
** Current wind speed in m/s (hover to see current wind gust speed)